Hot Springs, VA

3:59 AM EDT on July 24, 2016 (GMT -0400)
Ingalls

Weather History for KHSP - January, 2012

Change the Weather History Date:

Friday, January 6, 2012

  Actual Average Record
Temperature  
Mean Temperature 42 °F -  
Max Temperature 51 °F 34 °F 60 °F (1998)
Min Temperature 33 °F 21 °F -11 °F (2014)
Degree Days  
Heating Degree Days 23    
Moisture  
Dew Point 22 °F    
Average Humidity 48    
Maximum Humidity 60    
Minimum Humidity 34    
Precipitation  
Precipitation 0.00 in - - ()
Sea Level Pressure  
Sea Level Pressure 29.96 in    
Wind  
Wind Speed 21 mph (West)    
Max Wind Speed 29 mph    
Max Gust Speed 36 mph    
Visibility 10 miles    
Events      
Averages and records for this station are not official NWS values.
T = Trace of Precipitation, MM = Missing Value Source: NWS Daily Summary

Daily Weather History Graph

Daily Weather History Graph

Search for Another Location

Airport or City:

Trip Planner

Search our weather history database for the weather conditions in past years. The results will help you decide how hot, cold, wet, or windy it might be!

Date:

Astronomy

Jan. 06, 2012 Rise Set
Actual Time 7:35 AM EST 5:14 PM EST
Civil Twilight 7:06 AM EST 5:43 PM EST
Nautical Twilight 6:33 AM EST 6:16 PM EST
Astronomical Twilight 6:01 AM EST 6:48 PM EST
Moon 3:04 PM EST (1/6) 5:13 AM EST (1/6)
Length of Visible Light 10h 37m
Length of Day
9h 39m
Waxing Gibbous, 93% of the Moon is Illuminated
Jan 6
Waxing Gibbous
Jan 9
Full
Jan 16
Last Quarter
Jan 23
New
Jan 30
First Quarter

Hourly Weather History & Observations

Time (EST) Temp. Windchill Dew Point Humidity Pressure Visibility Wind Dir Wind Speed Gust Speed Precip Events Conditions
12:15 AM 33.8 °F 22.2 °F 19.4 °F 56% 29.95 in 10.0 mi West 20.7 mph 26.5 mph N/A   Clear
12:35 AM 33.8 °F 21.9 °F 19.4 °F 56% 29.95 in 10.0 mi West 21.9 mph 27.6 mph N/A   Clear
12:55 AM 33.8 °F 22.5 °F 21.2 °F 60% 29.95 in 10.0 mi West 19.6 mph 27.6 mph N/A   Clear
1:15 AM 33.8 °F 21.9 °F 21.2 °F 60% 29.95 in 10.0 mi West 21.9 mph 28.8 mph N/A   Clear
1:35 AM 33.8 °F 22.5 °F 21.2 °F 60% 29.95 in 10.0 mi West 19.6 mph 26.5 mph N/A   Clear
1:55 AM 33.8 °F 22.2 °F 21.2 °F 60% 29.95 in 10.0 mi West 20.7 mph 26.5 mph N/A   Clear
2:15 AM 33.8 °F 22.5 °F 21.2 °F 60% 29.95 in 10.0 mi West 19.6 mph 27.6 mph N/A   Clear
2:35 AM 33.8 °F 21.3 °F 21.2 °F 60% 29.96 in 10.0 mi West 24.2 mph 28.8 mph N/A   Clear
2:55 AM 33.8 °F 21.0 °F 21.2 °F 60% 29.96 in 10.0 mi West 25.3 mph 31.1 mph N/A   Clear
3:15 AM 35.6 °F 23.7 °F 21.2 °F 56% 29.96 in 10.0 mi West 24.2 mph 29.9 mph N/A   Clear
3:35 AM 35.6 °F 23.2 °F 21.2 °F 56% 29.95 in 10.0 mi West 26.5 mph 32.2 mph N/A   Clear
3:55 AM 35.6 °F 24.2 °F 21.2 °F 56% 29.95 in 10.0 mi West 21.9 mph 31.1 mph N/A   Clear
4:15 AM 33.8 °F 21.6 °F 21.2 °F 60% 29.95 in 10.0 mi West 23.0 mph 28.8 mph N/A   Clear
4:35 AM 35.6 °F 24.2 °F 21.2 °F 56% 29.95 in 10.0 mi West 21.9 mph 31.1 mph N/A   Clear
5:15 AM 35.6 °F 24.0 °F 21.2 °F 56% 29.95 in 10.0 mi West 23.0 mph 31.1 mph N/A   Clear
5:35 AM 35.6 °F 23.2 °F 21.2 °F 56% 29.96 in 10.0 mi West 26.5 mph 29.9 mph N/A   Clear
5:55 AM 35.6 °F 22.7 °F 21.2 °F 56% 29.96 in 10.0 mi West 28.8 mph 33.4 mph N/A   Clear
6:15 AM 35.6 °F 24.0 °F 21.2 °F 56% 29.97 in 10.0 mi West 23.0 mph - N/A   Clear
6:35 AM 35.6 °F 24.2 °F 23.0 °F 60% 29.97 in 10.0 mi West 21.9 mph - N/A   Clear
6:55 AM 35.6 °F 24.0 °F 23.0 °F 60% 29.97 in 10.0 mi West 23.0 mph 29.9 mph N/A   Clear
7:15 AM 35.6 °F 24.2 °F 23.0 °F 60% 29.97 in 10.0 mi West 21.9 mph 28.8 mph N/A   Clear
7:35 AM 35.6 °F 23.4 °F 23.0 °F 60% 29.97 in 10.0 mi West 25.3 mph 33.4 mph N/A   Clear
8:15 AM 37.4 °F 26.6 °F 23.0 °F 56% 29.98 in 10.0 mi West 21.9 mph 31.1 mph N/A   Clear
8:35 AM 37.4 °F 26.1 °F 23.0 °F 56% 29.99 in 10.0 mi West 24.2 mph 28.8 mph N/A   Clear
8:55 AM 37.4 °F 25.9 °F 23.0 °F 56% 29.99 in 10.0 mi West 25.3 mph 29.9 mph N/A   Clear
9:15 AM 39.2 °F 28.7 °F 23.0 °F 52% 30.00 in 10.0 mi West 23.0 mph 29.9 mph N/A   Clear
9:55 AM 39.2 °F 29.8 °F 23.0 °F 52% 30.00 in 10.0 mi West 18.4 mph 24.2 mph N/A   Clear
10:35 AM 42.8 °F 34.8 °F 24.8 °F 49% 30.00 in 10.0 mi West 17.3 mph 27.6 mph N/A   Clear
10:55 AM 42.8 °F 33.8 °F 24.8 °F 49% 29.99 in 10.0 mi West 21.9 mph 25.3 mph N/A   Clear
11:35 AM 44.6 °F 37.4 °F 24.8 °F 46% 29.98 in 10.0 mi West 16.1 mph 23.0 mph N/A   Clear
11:55 AM 46.4 °F 39.5 °F 24.8 °F 43% 29.98 in 10.0 mi West 17.3 mph 23.0 mph N/A   Clear
12:15 PM 46.4 °F 40.4 °F 26.6 °F 46% 29.97 in 10.0 mi West 13.8 mph 24.2 mph N/A   Clear
12:57 PM 48.2 °F - 26.6 °F 43% 29.96 in 10.0 mi West 20.7 mph 27.6 mph N/A   Clear
1:15 PM 48.2 °F - 26.6 °F 43% 29.96 in 10.0 mi West 16.1 mph 24.2 mph N/A   Clear
1:35 PM 50.0 °F - 26.6 °F 40% 29.95 in 10.0 mi West 18.4 mph 23.0 mph N/A   Clear
1:55 PM 50.0 °F - 26.6 °F 40% 29.94 in 10.0 mi West 17.3 mph 25.3 mph N/A   Clear
2:15 PM 51.8 °F - 26.6 °F 38% 29.94 in 10.0 mi West 20.7 mph 24.2 mph N/A   Clear
2:35 PM 51.8 °F - 26.6 °F 38% 29.94 in 10.0 mi West 16.1 mph 24.2 mph N/A   Clear
2:55 PM 51.8 °F - 26.6 °F 38% 29.95 in 10.0 mi West 16.1 mph 23.0 mph N/A   Clear
3:15 PM 51.8 °F - 24.8 °F 35% 29.95 in 10.0 mi West 20.7 mph 28.8 mph N/A   Clear
4:15 PM 51.8 °F - 24.8 °F 35% 29.95 in 10.0 mi West 16.1 mph 21.9 mph N/A   Clear
4:35 PM 50.0 °F - 24.8 °F 37% 29.96 in 10.0 mi West 16.1 mph 21.9 mph N/A   Clear
4:56 PM 48.2 °F - 23.0 °F 37% 29.96 in 10.0 mi West 19.6 mph 25.3 mph N/A   Clear
5:15 PM 48.2 °F - 21.2 °F 34% 29.96 in 10.0 mi West 18.4 mph 21.9 mph N/A   Clear
6:16 PM 46.4 °F 39.2 °F 23.0 °F 40% 29.96 in 10.0 mi WSW 18.4 mph - N/A   Clear
6:35 PM 46.4 °F 39.2 °F 23.0 °F 40% 29.95 in 10.0 mi WSW 18.4 mph - N/A   Clear
6:55 PM 46.4 °F 39.0 °F 21.2 °F 37% 29.95 in 10.0 mi WSW 19.6 mph - N/A   Clear
7:16 PM 46.4 °F 39.2 °F 21.2 °F 37% 29.96 in 10.0 mi West 18.4 mph - N/A   Clear
7:36 PM 46.4 °F 39.0 °F 21.2 °F 37% 29.95 in 10.0 mi West 19.6 mph 23.0 mph N/A   Clear
7:56 PM 46.4 °F 38.7 °F - N/A% 29.95 in 10.0 mi West 20.7 mph 27.6 mph N/A   Clear
8:15 PM 44.6 °F 37.2 °F 21.2 °F 39% 29.95 in 10.0 mi West 17.3 mph 24.2 mph N/A   Clear
8:36 PM 44.6 °F 37.2 °F 21.2 °F 39% 29.95 in 10.0 mi West 17.3 mph - N/A   Clear
9:15 PM 44.6 °F 36.9 °F 19.4 °F 37% 29.94 in 10.0 mi West 18.4 mph - N/A   Clear
9:36 PM 44.6 °F 36.6 °F 21.2 °F 39% 29.94 in 10.0 mi West 19.6 mph 24.2 mph N/A   Clear
9:55 PM 44.6 °F 36.9 °F 21.2 °F 39% 29.94 in 10.0 mi West 18.4 mph - N/A   Clear
10:15 PM 42.8 °F 34.3 °F 21.2 °F 42% 29.94 in 10.0 mi West 19.6 mph - N/A   Clear
10:35 PM 42.8 °F 33.8 °F 19.4 °F 39% 29.94 in 10.0 mi West 21.9 mph 29.9 mph N/A   Clear
10:58 PM 44.6 °F 35.9 °F 19.4 °F 37% 29.93 in 10.0 mi West 23.0 mph 29.9 mph N/A   Clear
11:15 PM 42.8 °F 33.5 °F 19.4 °F 39% 29.93 in 10.0 mi West 23.0 mph 32.2 mph N/A   Clear
11:38 PM 42.8 °F 33.3 °F 19.4 °F 39% 29.93 in 10.0 mi West 24.2 mph 31.1 mph N/A   Clear
11:55 PM 42.8 °F 32.9 °F 19.4 °F 39% 29.92 in 10.0 mi West 26.5 mph 35.7 mph N/A   Clear